FW6082 Weather Reports


time (UTC)temp
C
wind
direction
speed
KPH
gust
KPH
rain 1hr
cm
rain 24hr
cm
rain mn
cm
humidity
%
barometer
mb
20260903200037 21 236 0.0 12.9 0.00 0.00 0.00 28 1015.3
20260903194549 21 217 3.2 12.9 0.00 0.00 0.00 27 1015.5
20260903193038 20 326 1.6 11.3 0.00 0.00 0.00 27 1015.6
20260903190052 20 219 3.2 11.3 0.00 0.00 0.00 27 1015.6
20260903183040 20 355 0.0 8.0 0.00 0.00 0.00 29 1015.9
20260903181545 20 210 0.0 6.4 0.00 0.00 0.00 29 1016.1
20260903180009 20 210 0.0 4.8 0.00 0.00 0.00 32 1016.2
20260903174509 20 213 3.2 6.4 0.00 0.00 0.00 32 1016.4
20260903173007 20 312 0.0 6.4 0.00 0.00 0.00 30 1016.5
20260903171519 20 195 0.0 8.0 0.00 0.00 0.00 32 1016.7
20260903170006 20 241 0.0 4.8 0.00 0.00 0.00 32 1016.7
20260903164504 20 259 0.0 3.2 0.00 0.00 0.00 33 1016.7
20260903163005 20 106 0.0 3.2 0.00 0.00 0.00 31 1016.8
20260903161502 20 106 0.0 1.6 0.00 0.00 0.00 32 1016.8
20260903160106 21 106 0.0 1.6 0.00 0.00 0.00 31 1017.0
20260903154559 21 106 0.0 0.0 0.00 0.00 0.00 30 1016.9
20260903153056 20 106 0.0 0.0 0.00 0.00 0.00 29 1017.1
20260903151553 20 106 0.0 1.6 0.00 0.00 0.00 32 1017.3
20260903150111 20 106 0.0 1.6 0.00 0.00 0.00 31 1017.4
20260903144546 18 106 0.0 0.0 0.00 0.00 0.00 32 1017.5
20260903143044 18 106 0.0 1.6 0.00 0.00 0.00 35 1017.5
20260903141538 17 106 0.0 1.6 0.00 0.00 0.00 38 1017.5
20260903140040 17 108 0.0 3.2 0.00 0.00 0.00 40 1017.4
20260903134529 16 65 0.0 1.6 0.00 0.00 0.00 45 1017.4
20260903133027 15 65 0.0 0.0 0.00 0.00 0.00 49 1017.4
20260903131521 15 59 0.0 0.0 0.00 0.00 0.00 46 1017.4
20260903130017 14 52 0.0 0.0 0.00 0.00 0.00 50 1017.4
20260903124514 13 52 0.0 0.0 0.00 0.00 0.00 57 1017.3
20260903123022 12 52 0.0 1.6 0.00 0.00 0.00 59 1017.3
20260903121507 12 52 0.0 0.0 0.00 0.00 0.00 57 1017.3
20260903120005 11 52 0.0 0.0 0.00 0.00 0.00 58 1017.2
20260903114619 11 52 0.0 0.0 0.00 0.00 0.00 53 1017.0
20260903113103 11 52 0.0 0.0 0.00 0.00 0.00 54 1016.8
20260903111614 11 52 0.0 0.0 0.00 0.00 0.00 56 1016.7
20260903110052 11 52 0.0 0.0 0.00 0.00 0.00 58 1016.5
20260903104554 11 52 0.0 0.0 0.00 0.00 0.00 55 1016.5
20260903103056 10 52 0.0 0.0 0.00 0.00 0.00 57 1016.4
20260903101551 11 52 0.0 0.0 0.00 0.00 0.00 57 1016.3
20260903100049 11 52 0.0 1.6 0.00 0.00 0.00 57 1016.2
20260903094557 10 52 0.0 0.0 0.00 0.00 0.00 60 1016.1
20260903093120 10 52 0.0 0.0 0.00 0.00 0.00 60 1016.2
20260903091553 10 52 0.0 0.0 0.00 0.00 0.00 62 1016.2
20260903090045 10 52 0.0 0.0 0.00 0.00 0.00 62 1016.0
20260903084545 10 52 0.0 0.0 0.00 0.00 0.00 61 1016.1
20260903083046 10 52 0.0 0.0 0.00 0.00 0.00 61 1016.1
20260903081542 10 52 0.0 0.0 0.00 0.00 0.00 61 1016.0
20260903080040 10 52 0.0 0.0 0.00 0.00 0.00 61 1016.0
20260903074543 10 52 0.0 0.0 0.00 0.00 0.00 62 1016.2
20260903073035 10 52 0.0 0.0 0.00 0.00 0.00 61 1016.2
20260903071534 11 52 0.0 0.0 0.00 0.00 0.00 59 1016.1
20260903070052 11 52 0.0 0.0 0.00 0.00 0.00 60 1016.1
20260903064530 11 52 0.0 0.0 0.00 0.00 0.00 60 1016.1
20260903063028 11 52 0.0 0.0 0.00 0.00 0.00 59 1016.1
20260903061528 11 52 0.0 3.2 0.00 0.00 0.00 58 1016.2
20260903060026 11 339 0.0 0.0 0.00 0.00 0.00 58 1016.2
20260903054535 11 339 0.0 0.0 0.00 0.00 0.00 58 1016.4
20260903053023 12 339 0.0 0.0 0.00 0.00 0.00 58 1016.4
20260903051522 12 339 0.0 0.0 0.00 0.00 0.00 58 1016.4
20260903050021 12 339 0.0 0.0 0.00 0.00 0.00 58 1016.3
20260903044518 12 339 0.0 0.0 0.00 0.00 0.00 57 1016.4
20260903043022 12 339 0.0 0.0 0.00 0.00 0.00 56 1016.3
20260903041520 12 339 0.0 0.0 0.00 0.00 0.00 56 1016.2
20260903040012 13 339 0.0 0.0 0.00 0.00 0.00 56 1016.2
20260903034519 13 339 0.0 0.0 0.00 0.00 0.00 55 1016.4
20260903033009 13 339 0.0 0.0 0.00 0.00 0.00 52 1016.5
20260903031508 14 339 0.0 0.0 0.00 0.00 0.00 49 1016.6
20260903030008 15 339 0.0 0.0 0.00 0.00 0.00 48 1016.7
20260903024507 15 339 0.0 0.0 0.00 0.00 0.00 45 1016.6
20260903023024 16 339 0.0 1.6 0.00 0.00 0.00 44 1016.7
20260903021505 16 339 0.0 0.0 0.00 0.00 0.00 44 1016.6
20260903020003 16 284 0.0 1.6 0.00 0.00 0.00 44 1016.5
20260903014504 16 216 0.0 4.8 0.00 0.00 0.00 43 1016.4
20260903013002 16 329 1.6 6.4 0.00 0.00 0.00 43 1016.4
20260903011501 16 323 0.0 1.6 0.00 0.00 0.00 43 1016.4
20260903010100 16 323 0.0 4.8 0.00 0.00 0.00 42 1016.2
20260903004601 15 18 0.0 0.0 0.00 0.00 0.00 41 1016.1
20260903003110 16 18 0.0 0.0 0.00 0.00 0.00 38 1016.0
20260903001556 16 18 0.0 0.0 0.00 0.00 0.00 35 1015.7
20260903000103 16 18 0.0 0.0 0.00 0.00 0.00 35 1015.7
20260902234555 17 18 0.0 0.0 0.00 0.00 0.00 36 1015.6
20260902233054 17 18 0.0 0.0 0.00 0.00 0.00 33 1015.4
20260902231553 18 18 0.0 0.0 0.00 0.00 0.00 33 1015.2
20260902224609 20 18 0.0 0.0 0.00 0.00 0.00 29 1015.0
20260902223109 20 18 0.0 1.6 0.00 0.00 0.00 26 1014.9
20260902221558 20 97 0.0 0.0 0.00 0.00 0.00 24 1014.7
20260902220051 21 221 0.0 8.0 0.00 0.00 0.00 23 1014.5
20260902214615 21 249 1.6 9.7 0.00 0.00 0.00 20 1014.5
20260902213051 21 219 1.6 8.0 0.00 0.00 0.00 22 1014.3
20260902211552 22 284 0.0 9.7 0.00 0.00 0.00 21 1014.1
20260902210050 22 252 1.6 6.4 0.00 0.00 0.00 17 1014.0
20260902204546 22 325 1.6 4.8 0.00 0.00 0.00 16 1013.8
20260902203045 23 219 0.0 6.4 0.00 0.00 0.00 17 1014.0
20260902201556 23 257 1.6 11.3 0.00 0.00 0.00 16 1013.9